Wind_Speed
47 46 45 38 37 35 38 39 37 34 32 33 35 36 38 38 40 43 46 45 52 64 66 69 68 63 63 61 57 54 56 60 65 66 64 63 66 68 38 46 38 33 39 43
47 49 40 32 34 36 39 40 38 33 17 24 29 34 34 36 37 40 41 41 41 42 67 68 71 70 67 66 64 63 61 65 68 63 66 67 71 56 35 29 24 37 41 45
43 39 33 32 35 38 41 41 36 31 23 26 26 29 31 33 31 29 34 37 38 41 40 57 66 70 71 72 67 63 65 66 70 69 65 56 60 61 28 32 24 46 45 45
36 36 37 34 34 37 39 38 35 36 35 39 33 32 26 27 27 27 31 32 32 40 44 45 57 65 65 71 75 68 62 62 67 67 72 64 65 55 73 72 51 56 58 47
39 39 38 35 34 35 35 35 34 33 37 36 35 35 29 23 24 27 29 28 30 29 39 40 48 57 63 59 52 59 66 72 73 67 59 41 46 60 54 56 55 58 55 60
35 33 35 31 33 31 30 27 25 30 36 42 32 30 29 24 23 27 25 32 25 22 25 40 48 46 46 48 56 48 56 49 59 65 58 59 44 40 43 39 45 44 55 57
38 37 34 29 31 21 33 33 35 30 35 39 23 24 22 24 26 22 20 24 24 32 29 17 30 38 41 36 47 56 61 62 58 52 49 57 57 47 50 40 39 45 47 50
37 37 37 35 35 37 35 39 40 39 35 18 10 18 12 15 21 25 22 27 27 23 26 28 18 27 30 29 34 40 46 46 48 56 61 53 59 51 43 45 40 39 41 49
33 32 31 33 37 34 28 39 37 30 19 20 17 23 20 24 28 27 27 27 19 21 21 26 26 29 27 31 32 40 43 43 39 45 46 45 45 45 44 37 38 32 39 47
38 33 33 35 26 40 32 24 34 32 34 29 28 30 19 26 28 32 31 27 21 17 25 22 21 24 27 35 36 38 44 34 36 39 37 32 35 36 31 31 38 39 38 42
40 34 35 43 38 34 38 29 29 34 36 33 28 31 32 16 15 23 29 29 20 20 18 19 22 24 27 32 35 32 31 29 38 46 28 29 29 32 34 35 36 40 40 40
44 37 42 38 45 41 40 36 36 41 40 39 38 35 31 31 29 23 15 30 19 18 20 20 25 27 24 28 33 28 24 24 28 22 26 33 37 38 37 36 38 40 43 45
40 41 35 41 41 39 37 43 43 38 38 38 37 28 40 30 30 29 30 23 12 12 18 21 24 25 23 26 31 32 28 29 30 30 34 38 38 39 41 41 43 45 46 47
41 34 34 33 37 35 28 43 43 32 42 41 38 35 29 18 21 31 34 37 13 11 15 16 19 22 25 26 27 31 35 34 35 36 38 41 40 44 43 44 45 45 46 47
40 36 32 32 34 32 27 42 45 45 30 30 37 41 35 25 27 20 29 20 6 11 15 18 18 25 28 29 31 33 34 37 38 37 38 39 38 41 42 42 44 44 46 47
38 39 34 30 33 34 29 32 41 44 42 35 34 30 42 26 24 26 29 21 19 17 15 12 15 19 19 23 29 35 36 37 39 40 40 39 39 41 43 41 42 42 42 45
41 38 34 19 34 39 37 30 36 44 37 31 21 28 28 36 24 22 21 21 21 14 18 16 18 18 21 24 24 24 27 29 32 33 33 35 36 37 37 37 39 40 41 44
40 36 26 32 18 25 35 32 33 38 32 29 27 29 30 27 24 20 23 16 12 20 22 21 23 24 24 26 29 31 31 31 32 32 33 33 34 34 35 35 36 38 40 42
43 33 26 23 24 25 22 28 28 22 26 26 24 21 20 18 13 14 17 26 28 25 26 26 27 27 28 29 30 32 32 32 31 31 31 31 31 31 32 33 33 35 31 32
36 33 32 30 20 22 21 19 29 24 21 16 19 19 18 16 18 20 21 22 26 28 27 27 26 26 27 28 30 30 30 29 29 29 28 28 29 28 29 29 24 26 29 33
33 33 35 28 25 20 18 23 27 24 21 15 16 16 17 18 18 20 22 24 25 26 25 25 24 23 21 24 27 29 30 30 29 29 29 29 27 26 23 20 23 26 30 34
37 30 29 30 23 23 22 21 20 14 12 14 16 16 17 19 19 19 21 23 24 25 25 24 23 23 23 24 26 27 28 29 29 28 26 23 22 20 18 21 23 27 32 37
34 39 35 31 30 22 19 19 16 14 13 17 17 16 17 18 20 21 21 22 23 25 25 24 25 25 26 28 29 29 27 27 25 23 22 21 17 16 18 19 23 28 31 23
43 43 28 21 23 23 22 19 18 18 18 17 16 16 16 16 17 19 20 21 22 24 25 26 28 29 31 31 29 27 25 24 22 21 18 14 13 15 15 17 23 26 22 17
22 30 28 17 16 20 17 18 19 16 15 15 15 14 15 16 17 19 21 22 23 24 24 25 28 30 31 30 26 25 25 22 17 15 14 11 12 11 13 17 22 24 18 14
15 13 14 16 16 17 16 15 15 15 15 16 16 16 17 17 19 20 22 22 22 22 23 27 29 29 27 23 23 23 18 15 12 13 10 9 9 11 13 16 23 23 16 11
Wind_Direction
247 246 247 249 244 240 232 230 230 235 237 242 242 240 238 234 239 242 241 236 238 240 243 251 254 255 258 259 258 255 254 252 254 254 251 264 274 281 225 225 242 254 260 267
242 242 246 243 238 235 232 226 228 226 228 258 242 238 238 239 238 240 243 246 238 236 241 244 249 251 252 253 254 257 258 259 257 250 254 258 262 243 246 192 271 277 280 274
243 245 241 237 231 229 227 224 219 210 193 227 240 240 240 244 248 250 252 249 244 240 234 239 246 249 249 251 252 255 260 261 266 269 262 257 261 263 236 245 275 287 281 281
231 229 227 224 223 226 227 222 216 196 203 217 233 246 244 248 249 251 250 252 254 252 251 247 235 244 251 250 250 248 248 256 264 272 273 262 258 257 262 270 279 282 288 280
234 229 232 228 223 224 226 222 220 219 220 228 229 242 241 241 245 246 255 254 247 264 258 244 234 234 241 244 249 251 251 254 257 258 265 273 269 265 269 276 273 279 277 271
224 224 222 222 215 217 222 206 222 220 225 234 236 243 249 250 239 249 251 252 260 264 245 226 227 233 245 248 242 245 244 247 253 256 261 264 271 268 267 270 274 262 267 270
205 213 208 203 213 211 212 202 208 215 224 234 234 248 263 242 238 250 275 253 288 264 259 246 229 242 252 262 256 250 248 251 250 252 259 258 260 271 266 273 273 273 266 271
211 201 205 193 194 211 213 210 213 214 222 237 220 249 236 256 270 269 256 264 271 283 247 247 254 252 254 261 260 259 254 251 248 250 253 256 257 259 264 269 274 270 265 264
209 211 196 196 193 205 210 213 209 213 207 222 221 237 245 245 252 260 267 263 266 255 230 239 251 245 260 266 273 265 256 242 245 246 249 250 254 257 261 262 266 259 261 269
195 201 186 193 204 199 210 216 203 195 201 210 209 228 220 236 242 256 269 264 243 214 243 239 244 254 259 262 262 270 261 237 240 240 245 234 233 243 239 241 251 261 261 263
195 200 194 188 191 195 199 205 201 199 210 214 208 223 234 250 249 248 257 266 226 237 245 245 254 264 265 267 271 271 261 231 230 237 225 234 241 242 242 244 250 257 263 269
195 197 202 202 187 197 200 199 194 201 211 213 217 233 237 240 242 263 268 187 192 228 240 247 260 261 256 261 265 269 256 263 267 249 245 243 246 248 252 256 261 265 268 271
191 207 197 192 189 191 202 197 209 212 216 221 226 224 234 251 250 264 255 251 203 215 238 244 251 255 261 270 277 273 280 277 278 272 263 262 265 264 264 264 266 269 271 272
200 199 197 207 192 195 196 190 210 215 216 219 231 239 252 250 240 271 249 238 201 243 251 255 260 269 271 267 263 265 268 269 265 270 270 270 272 272 270 270 270 270 273 275
205 195 192 195 200 202 197 199 210 218 216 226 237 245 252 259 251 224 196 189 201 295 283 256 280 280 280 273 270 265 261 265 267 269 272 275 276 275 277 277 277 277 278 279
183 184 191 205 202 199 204 200 215 222 218 227 243 242 243 256 240 247 248 228 289 295 287 295 277 270 276 283 280 271 272 273 273 272 274 275 276 278 280 280 280 280 280 284
184 188 202 198 192 196 195 195 203 217 223 205 234 239 239 250 251 275 249 260 292 297 270 264 269 273 279 287 291 282 274 272 273 274 275 276 277 276 279 281 282 283 283 284
183 192 182 206 206 185 210 195 199 204 213 235 234 237 238 240 266 276 261 211 265 286 287 288 287 287 289 285 281 279 278 276 274 276 276 275 275 277 279 280 281 282 284 285
192 198 192 171 183 192 187 183 198 171 189 202 201 215 226 232 260 266 232 242 279 286 287 286 286 288 285 283 281 279 278 277 278 276 277 277 278 278 278 279 282 282 284 288
193 197 196 205 182 170 178 200 204 186 218 218 222 237 246 251 254 252 259 268 272 276 281 283 283 283 282 282 279 278 277 277 277 278 279 278 276 276 278 281 284 285 291 296
190 195 195 204 203 204 196 181 186 201 217 222 239 239 242 248 257 259 261 266 271 274 277 279 282 283 285 285 283 280 277 275 275 276 278 279 281 282 284 283 286 294 301 305
191 195 178 176 192 196 201 198 206 216 206 217 226 242 252 256 257 262 265 268 272 274 274 273 272 278 289 298 296 292 284 279 279 281 284 283 283 281 279 288 298 305 305 304
177 180 173 189 191 195 207 203 209 206 209 221 229 234 247 259 265 269 271 270 269 269 269 267 268 282 293 295 296 295 292 286 286 285 282 281 276 278 290 301 306 306 308 319
166 180 191 199 195 198 203 199 206 210 217 225 234 244 249 256 265 272 274 274 273 273 275 274 278 285 290 294 295 290 287 288 284 279 273 267 269 287 298 308 310 319 332 336
173 184 187 170 192 202 206 209 218 224 229 236 240 245 258 267 274 279 282 283 284 285 285 286 287 290 291 293 289 286 286 283 267 263 254 254 279 291 307 314 331 342 345 341
161 168 181 188 197 202 212 220 229 234 238 244 251 258 264 271 279 282 283 284 286 286 291 296 296 296 294 290 285 281 273 252 247 240 237 265 280 303 311 335 348 347 348 340
Height
5695 5696 5699 5707 5711 5717 5720 5723 5728 5734 5737 5740 5745 5750 5753 5756 5760 5765 5773 5780 5782 5782 5783 5781 5787 5793 5794 5801 5807 5809 5811 5812 5814 5819 5822 5823 5820 5819 5797 5825 5835 5840 5843 5843
5679 5684 5694 5700 5703 5705 5711 5713 5718 5725 5729 5733 5736 5741 5745 5748 5752 5756 5760 5765 5774 5776 5776 5775 5773 5780 5787 5792 5795 5797 5798 5800 5803 5810 5810 5814 5813 5819 5805 5801 5821 5830 5835 5834
5668 5682 5684 5687 5692 5694 5700 5704 5710 5718 5725 5729 5730 5733 5736 5741 5745 5748 5750 5753 5758 5763 5767 5768 5764 5766 5773 5779 5786 5788 5784 5787 5785 5784 5796 5804 5805 5806 5785 5787 5800 5813 5820 5822
5657 5666 5671 5676 5681 5688 5692 5700 5705 5710 5716 5720 5724 5727 5731 5734 5737 5740 5741 5742 5744 5750 5755 5758 5757 5759 5764 5767 5770 5779 5782 5781 5779 5770 5770 5790 5791 5797 5781 5793 5805 5808 5807 5810
5648 5656 5661 5668 5675 5681 5687 5695 5700 5707 5710 5713 5717 5719 5723 5727 5730 5731 5733 5732 5734 5738 5740 5740 5743 5750 5753 5758 5762 5767 5771 5774 5777 5775 5771 5774 5781 5784 5786 5791 5795 5797 5799 5800
5638 5646 5651 5662 5668 5674 5682 5689 5695 5700 5704 5702 5711 5714 5717 5723 5724 5725 5728 5727 5729 5732 5729 5730 5733 5741 5746 5749 5751 5753 5757 5760 5762 5767 5767 5766 5774 5778 5778 5781 5782 5784 5790 5794
5626 5634 5644 5652 5658 5668 5674 5681 5686 5691 5692 5695 5707 5709 5713 5717 5717 5720 5724 5726 5725 5725 5730 5731 5733 5737 5741 5743 5744 5747 5746 5747 5750 5752 5757 5761 5765 5766 5772 5773 5774 5773 5775 5775
5619 5625 5635 5643 5652 5660 5666 5672 5677 5681 5688 5698 5703 5702 5707 5710 5713 5717 5720 5720 5721 5719 5725 5727 5727 5730 5733 5734 5734 5735 5736 5735 5739 5741 5746 5751 5754 5758 5759 5760 5763 5763 5763 5764
5614 5622 5632 5639 5648 5656 5661 5664 5676 5683 5689 5692 5698 5699 5701 5703 5707 5710 5710 5709 5713 5712 5719 5720 5721 5723 5725 5723 5723 5723 5725 5727 5730 5734 5735 5737 5740 5741 5745 5746 5747 5748 5749 5750
5608 5615 5624 5636 5643 5650 5655 5666 5670 5675 5679 5683 5689 5692 5693 5694 5700 5702 5701 5703 5706 5707 5715 5716 5717 5718 5719 5718 5716 5717 5717 5719 5721 5722 5726 5728 5728 5731 5732 5734 5738 5738 5738 5739
5603 5609 5619 5622 5631 5642 5651 5657 5665 5671 5673 5677 5683 5686 5684 5689 5690 5692 5694 5697 5701 5703 5706 5707 5709 5712 5713 5713 5713 5712 5712 5710 5713 5715 5717 5720 5722 5724 5725 5727 5727 5728 5728 5728
5597 5604 5612 5618 5625 5634 5646 5653 5657 5660 5666 5671 5675 5680 5679 5685 5685 5689 5686 5688 5693 5698 5700 5702 5705 5707 5708 5709 5709 5711 5709 5709 5711 5711 5714 5715 5717 5718 5717 5716 5716 5716 5717 5717
5593 5598 5607 5618 5625 5630 5636 5646 5652 5657 5662 5666 5671 5674 5677 5679 5682 5686 5686 5691 5692 5693 5696 5700 5703 5704 5703 5704 5703 5704 5705 5707 5708 5709 5711 5711 5710 5710 5709 5708 5708 5707 5706 5706
5586 5596 5607 5611 5622 5628 5633 5641 5647 5651 5657 5660 5664 5668 5672 5675 5677 5680 5680 5685 5689 5690 5696 5697 5699 5700 5701 5699 5699 5699 5699 5699 5699 5701 5703 5702 5701 5702 5700 5698 5697 5697 5696 5695
5580 5592 5603 5610 5620 5627 5633 5640 5642 5646 5656 5659 5663 5664 5668 5672 5677 5669 5673 5678 5683 5687 5690 5694 5695 5695 5695 5693 5693 5693 5693 5694 5693 5690 5690 5690 5692 5692 5689 5687 5686 5685 5684 5682
5582 5592 5601 5605 5615 5623 5631 5635 5639 5645 5650 5653 5653 5658 5660 5667 5670 5672 5673 5679 5679 5682 5687 5688 5689 5689 5688 5686 5684 5684 5686 5685 5684 5683 5681 5681 5682 5681 5679 5677 5676 5674 5672 5670
5581 5589 5597 5603 5609 5618 5624 5631 5634 5634 5642 5646 5650 5654 5656 5659 5666 5668 5673 5675 5677 5678 5680 5685 5686 5683 5680 5680 5680 5679 5677 5676 5675 5674 5674 5673 5672 5671 5670 5668 5666 5664 5663 5661
5579 5586 5586 5600 5607 5613 5619 5628 5629 5634 5641 5645 5646 5650 5651 5657 5663 5667 5667 5668 5671 5673 5675 5676 5674 5674 5675 5674 5672 5670 5669 5669 5668 5667 5666 5666 5665 5664 5663 5661 5658 5656 5653 5649
5580 5587 5595 5602 5606 5613 5618 5625 5630 5631 5638 5642 5645 5649 5653 5658 5662 5663 5664 5667 5669 5669 5669 5668 5667 5667 5667 5666 5665 5663 5661 5660 5660 5659 5658 5658 5657 5655 5653 5650 5648 5646 5644 5642
5582 5589 5597 5600 5607 5611 5619 5624 5628 5635 5640 5643 5647 5652 5653 5656 5659 5662 5663 5664 5663 5664 5664 5663 5661 5661 5661 5660 5657 5655 5655 5653 5652 5651 5650 5649 5648 5646 5644 5643 5641 5639 5637 5634
5581 5589 5595 5599 5606 5612 5616 5622 5628 5632 5638 5641 5644 5647 5650 5654 5657 5657 5658 5659 5659 5659 5658 5657 5657 5656 5656 5653 5650 5648 5647 5645 5644 5643 5641 5640 5639 5638 5637 5635 5634 5632 5629 5625
5582 5589 5594 5600 5605 5611 5614 5618 5624 5630 5635 5640 5643 5645 5646 5647 5650 5653 5654 5654 5654 5653 5653 5652 5651 5650 5649 5646 5644 5641 5639 5637 5636 5635 5634 5633 5632 5632 5631 5630 5628 5626 5622 5616
5581 5587 5590 5599 5602 5611 5614 5619 5623 5629 5634 5636 5639 5641 5643 5645 5646 5647 5648 5648 5648 5648 5647 5646 5644 5643 5641 5638 5636 5633 5631 5629 5629 5628 5627 5627 5627 5627 5626 5625 5624 5620 5615 5607
5582 5587 5594 5600 5604 5610 5614 5618 5622 5626 5629 5632 5635 5637 5639 5639 5641 5642 5642 5642 5642 5641 5639 5638 5636 5634 5632 5630 5627 5625 5623 5623 5622 5622 5621 5622 5623 5623 5623 5622 5619 5613 5605 5601
5584 5587 5592 5598 5605 5611 5613 5616 5620 5624 5626 5629 5630 5632 5633 5634 5635 5635 5634 5634 5634 5633 5631 5629 5627 5625 5622 5620 5618 5617 5616 5616 5615 5616 5618 5618 5619 5620 5620 5617 5612 5605 5600 5596
5583 5588 5593 5598 5604 5607 5611 5614 5618 5620 5622 5625 5626 5628 5629 5629 5628 5628 5628 5627 5626 5625 5624 5622 5619 5616 5613 5612 5610 5609 5609 5609 5610 5613 5614 5616 5616 5616 5615 5612 5606 5600 5596 5593